(174955) = 2004 CP116 = 2006 QE124

Discovered at Kitt Peak on 2004-02-11 by Spacewatch.

Orbit

Orbit type: Main Belt

Note: WebGL enabled browser required.

epoch2023-09-13.0
epoch JD2460200.5
perihelion date2023-04-12.41169
perihelion JD2460046.91169
argument of perihelion (°)213.02852
ascending node (°)140.52730
inclination (°)10.42491
eccentricity0.1101813
perihelion distance (AU)2.2962453
Tisserand w.r.t. Jupiter3.4
ΔV w.r.t. Earth (km/sec)10.0
semimajor axis (AU)2.5805765
mean anomaly (°)36.51631
mean daily motion (°/day)0.23775450
aphelion distance (AU)2.865
period (years)4.15
P-vector [x]0.98796200
P-vector [y]-0.07011460
P-vector [z]-0.13789501
Q-vector [x]0.10343716
Q-vector [y]0.96222858
Q-vector [z]0.25182715
absolute magnitude16.36
phase slope0.15
uncertainty0
referenceMPEC 2024-A158
observations used443
oppositions16
arc length (days)8742
first opposition used2000
last opposition used2024
residual rms (arc-secs)0.68
perturbers coarse indicatorM-v
perturbers precise indicator003Ek
first observation date used2000-02-06.0
last observation date used2024-01-13.0
computer nameMPCLINUX
JD of orbit computation2456937.502286
perihelion JD uncertainty (days)9.9933E-05
argument of perihelion uncertainty (°)2.7951E-05
ascending node uncertainty (°)1.5960E-05
inclination uncertainty (°)6.6994E-06
eccentricity uncertainty 9.6732E-08
perihelion distance uncertainty (AU)2.6758E-07
Minimum Orbit Intersection Distances (in AU)
for orbit epoch: 2460400.5, reference: E2024-GB3
Mercury1.91233
Venus1.56851
Earth1.29499
Mars0.91696
Jupiter2.53142
Saturn6.3779
Uranus15.5857
Neptune27.4292

Observations

451 total observations over interval: 2000 02 06.35076 – 2024 01 13.174969
These data are available for download (format description).

Date (UT) J2000 RA J2000 Dec Magn Location Ref
2000 02 06.35076 10 11 23.85 +12 38 05.7 19.9 R 695 – Kitt Peak MPS 178453
2000 02 06.49043 10 11 16.92 +12 39 12.8   695 – Kitt Peak MPS 178453
2002 10 08.24746 01 24 10.03 -07 20 29.6 18.8 R 699 – Lowell Observatory-LONEOS MPS 178453
2002 10 08.26505 01 24 09.19 -07 20 37.6   699 – Lowell Observatory-LONEOS MPS 178453
2002 10 08.28264 01 24 08.24 -07 20 47.1   699 – Lowell Observatory-LONEOS MPS 178453
2002 10 08.30016 01 24 07.32 -07 20 54.7   699 – Lowell Observatory-LONEOS MPS 178453
2002 10 16.37834 01 17 40.57 -08 20 48.9 19.4   644 – Palomar Mountain/NEAT MPS 178453
2002 10 16.39957 01 17 39.53 -08 20 57.3 19.4   644 – Palomar Mountain/NEAT MPS 178453
2002 10 16.42890 01 17 38.09 -08 21 08.5 19.7   644 – Palomar Mountain/NEAT MPS 178453
2002 10 25.18598 01 10 58.60 -09 08 27.6 19.6   644 – Palomar Mountain/NEAT MPS 178453
2002 10 25.20681 01 10 57.66 -09 08 33.1 19.2   644 – Palomar Mountain/NEAT MPS 178453
2002 10 25.23403 01 10 56.43 -09 08 39.8 19.1   644 – Palomar Mountain/NEAT MPS 178453
2004 01 30.29889 09 12 56.95 +14 05 22.7 20.5 V 691 – Steward Observatory, Kitt Peak-Spacewatch MPS 178453
2004 01 30.34052 09 12 54.63 +14 05 41.3 20.6 V 691 – Steward Observatory, Kitt Peak-Spacewatch MPS 178453
2004 01 30.38296 09 12 52.29 +14 06 00.2 20.7 V 691 – Steward Observatory, Kitt Peak-Spacewatch MPS 178453
2004 02 11.20234 09 02 13.89 +15 34 42.3 20.2 V 691 – Steward Observatory, Kitt Peak-Spacewatch MPS 109961
2004 02 11.23047 09 02 12.34 +15 34 54.8 20.2 V 691 – Steward Observatory, Kitt Peak-Spacewatch MPS 109961
2004 02 11.25847 09 02 10.81 +15 35 07.3 20.3 V 691 – Steward Observatory, Kitt Peak-Spacewatch MPS 109961
2004 02 26.22337 08 50 14.88 +17 17 41.7 20.3   704 – Lincoln Laboratory ETS, New Mexico MPS 109961
2004 02 26.23464 08 50 14.42 +17 17 44.5 20.6   704 – Lincoln Laboratory ETS, New Mexico MPS 109961
2004 02 26.24589 08 50 13.98 +17 17 49.1 20.8   704 – Lincoln Laboratory ETS, New Mexico MPS 109961
2006 08 22.38886 00 07 01.72 -07 30 11.9 19.6 R 644 – Palomar Mountain/NEAT MPS 177287
2006 08 22.41013 00 07 01.20 -07 30 24.0 19.6 R 644 – Palomar Mountain/NEAT MPS 177287
2006 08 22.43154 00 07 00.73 -07 30 36.4 19.4 R 644 – Palomar Mountain/NEAT MPS 177287
2006 08 30.30078 00 03 38.73 -08 49 42.2 18.7 R 699 – Lowell Observatory-LONEOS MPS 177287
2006 08 30.32484 00 03 37.97 -08 49 58.3   699 – Lowell Observatory-LONEOS MPS 177287
2006 08 30.34790 00 03 37.21 -08 50 12.2   699 – Lowell Observatory-LONEOS MPS 177287
2006 08 30.37553 00 03 36.29 -08 50 29.8   699 – Lowell Observatory-LONEOS MPS 177287
2006 08 31.24524 00 03 09.00 -08 59 33.9 18.7   704 – Lincoln Laboratory ETS, New Mexico MPS 177287
2006 08 31.27867 00 03 07.84 -08 59 55.2 19.3   704 – Lincoln Laboratory ETS, New Mexico MPS 177287
2006 08 31.28980 00 03 07.52 -09 00 02.6 19.2   704 – Lincoln Laboratory ETS, New Mexico MPS 177287
2006 09 14.28532 23 54 02.23 -11 27 13.8 18.9 R 644 – Palomar Mountain/NEAT MPS 179323
2006 09 14.30604 23 54 01.27 -11 27 26.5 18.9 R 644 – Palomar Mountain/NEAT MPS 179323
2006 09 14.33169 23 54 00.09 -11 27 42.1 18.9 R 644 – Palomar Mountain/NEAT MPS 179323
2006 09 14.35074 23 53 59.17 -11 27 53.2 19.0 V 703 – Catalina Sky Survey MPS 178453
2006 09 14.35712 23 53 58.84 -11 27 57.2 18.9 V 703 – Catalina Sky Survey MPS 178453
2006 09 14.36303 23 53 58.56 -11 28 00.6 18.9 V 703 – Catalina Sky Survey MPS 178453
2006 09 14.37163 23 53 58.12 -11 28 05.8 19.1 V 703 – Catalina Sky Survey MPS 178453
2006 09 20.36175 23 49 30.90 -12 26 55.1 19.9   608 – Haleakala-AMOS MPS 179323
2006 09 20.37298 23 49 30.35 -12 27 02.1 19.7   608 – Haleakala-AMOS MPS 179323
2006 09 20.38350 23 49 29.88 -12 27 07.7 19.8   608 – Haleakala-AMOS MPS 179323
2006 09 26.27868 23 45 07.52 -13 19 09.2 18.8 V 703 – Catalina Sky Survey MPS 181027
2006 09 26.28550 23 45 07.20 -13 19 13.2 18.7 V 703 – Catalina Sky Survey MPS 181027
2006 09 26.29235 23 45 06.91 -13 19 17.0 19.1 V 703 – Catalina Sky Survey MPS 181027
2006 09 26.29919 23 45 06.58 -13 19 19.5 19.1 V 703 – Catalina Sky Survey MPS 181027
2006 10 02.26632 23 40 58.11 -14 04 12.8 19.1 V 703 – Catalina Sky Survey MPS 182663
2006 10 02.27365 23 40 57.82 -14 04 15.6 19.3 V 703 – Catalina Sky Survey MPS 182663
2006 10 02.28094 23 40 57.39 -14 04 17.5 19.2 V 703 – Catalina Sky Survey MPS 182663
2006 10 02.28824 23 40 57.14 -14 04 22.3 19.0 V 703 – Catalina Sky Survey MPS 182663
2006 10 11.16387 23 35 47.88 -14 53 59.1 19.1 R 644 – Palomar Mountain/NEAT MPS 182934
2006 10 11.18440 23 35 47.22 -14 54 04.3 19.2 R 644 – Palomar Mountain/NEAT MPS 182934
2006 10 11.20500 23 35 46.57 -14 54 09.8 19.3 R 644 – Palomar Mountain/NEAT MPS 182934
2006 10 12.16784 23 35 18.69 -14 58 14.0 20.2 R 644 – Palomar Mountain/NEAT MPS 182934
2006 10 12.18845 23 35 18.05 -14 58 18.8 19.8 R 644 – Palomar Mountain/NEAT MPS 182934
2006 10 12.21023 23 35 17.33 -14 58 25.4 20.2 R 644 – Palomar Mountain/NEAT MPS 182934
2006 10 24.10810 23 31 23.30 -15 27 02.5 19.5 R 644 – Palomar Mountain/NEAT MPS 184054
2006 10 24.12844 23 31 23.05 -15 27 03.4 19.4 R 644 – Palomar Mountain/NEAT MPS 184054
2006 10 24.14876 23 31 22.81 -15 27 04.8 19.7 R 644 – Palomar Mountain/NEAT MPS 184054
2007 12 18.36323 08 37 50.80 +11 37 37.6 20.5 V G96 – Mt. Lemmon Survey MPS 231787
2007 12 18.36943 08 37 50.66 +11 37 38.8 20.7 V G96 – Mt. Lemmon Survey MPS 231787
2007 12 18.37565 08 37 50.52 +11 37 39.5 20.7 V G96 – Mt. Lemmon Survey MPS 231787
2007 12 18.38205 08 37 50.34 +11 37 40.7 20.7 V G96 – Mt. Lemmon Survey MPS 231787
2008 01 10.37031 08 22 42.16 +13 16 47.5 20.6 V G96 – Mt. Lemmon Survey MPS 233384
2008 01 10.37748 08 22 41.77 +13 16 49.9 20.2 V G96 – Mt. Lemmon Survey MPS 233384
2008 01 10.38462 08 22 41.41 +13 16 52.1 20.4 V G96 – Mt. Lemmon Survey MPS 233384
2008 01 10.39176 08 22 41.01 +13 16 54.7 20.4 V G96 – Mt. Lemmon Survey MPS 233384
2008 01 20.23786 08 13 37.97 +14 17 36.8 19.7 V 691 – Steward Observatory, Kitt Peak-Spacewatch MPS 235048
2008 01 20.25599 08 13 36.90 +14 17 43.9 19.8 V 691 – Steward Observatory, Kitt Peak-Spacewatch MPS 235048
2008 01 20.27435 08 13 35.80 +14 17 51.1 19.8 V 691 – Steward Observatory, Kitt Peak-Spacewatch MPS 235048
2008 02 02.27265 08 01 32.11 +15 43 44.5 19.6   704 – Lincoln Laboratory ETS, New Mexico MPS 237323
2008 02 02.28502 08 01 31.52 +15 43 48.6 20.2   704 – Lincoln Laboratory ETS, New Mexico MPS 237323
2008 02 02.29742 08 01 30.80 +15 43 53.9 20.0   704 – Lincoln Laboratory ETS, New Mexico MPS 237323
2008 02 02.30983 08 01 30.12 +15 43 58.4 20.2   704 – Lincoln Laboratory ETS, New Mexico MPS 237323
2008 02 02.32220 08 01 29.48 +15 44 04.2 20.0   704 – Lincoln Laboratory ETS, New Mexico MPS 237323
2008 02 10.19519 07 55 02.85 +16 34 49.4 20.2 V G96 – Mt. Lemmon Survey MPS 239130
2008 02 10.20427 07 55 02.42 +16 34 52.8 20.3 V G96 – Mt. Lemmon Survey MPS 239130
2008 02 10.21344 07 55 02.02 +16 34 56.2 20.3 V G96 – Mt. Lemmon Survey MPS 239130
2008 02 10.21603 07 55 01.89 +16 34 57.5 19.8   704 – Lincoln Laboratory ETS, New Mexico MPS 239130
2008 02 10.22252 07 55 01.59 +16 34 59.7 20.2 V G96 – Mt. Lemmon Survey MPS 239130
2008 02 10.22809 07 55 01.35 +16 35 02.3 19.9   704 – Lincoln Laboratory ETS, New Mexico MPS 239130
2008 02 10.24012 07 55 00.82 +16 35 07.4 20.1   704 – Lincoln Laboratory ETS, New Mexico MPS 239130
2008 02 10.25215 07 55 00.28 +16 35 12.5 19.8   704 – Lincoln Laboratory ETS, New Mexico MPS 239130
2008 03 11.17206 07 43 30.75 +19 06 00.0 21.0 V G96 – Mt. Lemmon Survey MPS 243442
2008 03 11.17859 07 43 30.75 +19 06 01.3 20.9 V G96 – Mt. Lemmon Survey MPS 243442
2008 03 11.18510 07 43 30.75 +19 06 02.7 21.2 V G96 – Mt. Lemmon Survey MPS 243442
2008 03 11.19160 07 43 30.75 +19 06 04.3 21.0 V G96 – Mt. Lemmon Survey MPS 243442
2009 04 22.41017 14 13 54.40 +02 47 05.3   291 – LPL/Spacewatch II MPS 285542
2009 04 22.41400 14 13 54.21 +02 47 07.2   291 – LPL/Spacewatch II MPS 285542
2009 04 22.41780 14 13 54.03 +02 47 08.6   291 – LPL/Spacewatch II MPS 285542
2009 04 26.62969 14 10 20.41 +03 10 35.9 20.5 R D29 – Purple Mountain Observatory, XuYi Station MPS 286356
2009 04 26.64345 14 10 19.70 +03 10 39.5 20.8 R D29 – Purple Mountain Observatory, XuYi Station MPS 286356
